Theta_e
324 337 340 337 336 336 334 333 335 335 336 338 340 342 343 343 342 341 340 339 339 340 340 339 339 339 338 337 336 337 336 336 335 332 328 327 327 328 328 329 329 329 329 330 330 331 333 337 340 341 341 340 342 342 337 330 334 338 339 340 342 344 344 344 342 341 341 341 340 340 340 342 342 343 345 345 346 345 345 341 339 342 344 344 344
325 333 338 337 335 337 335 335 336 336 336 337 339 340 342 342 343 342 341 339 337 338 339 340 340 340 339 338 337 336 335 334 335 334 331 328 326 326 326 326 326 326 327 328 329 333 337 339 341 342 341 341 341 342 336 328 331 337 339 340 342 344 345 344 342 340 340 340 339 339 341 342 341 342 345 345 345 345 343 339 340 344 345 345 344
327 332 336 336 335 337 336 336 336 337 337 337 338 339 339 341 343 342 341 340 338 338 337 338 340 342 341 340 339 338 336 335 334 334 335 333 332 331 328 326 324 323 323 324 325 330 336 339 340 341 341 341 340 341 339 330 329 335 338 340 342 345 345 344 342 339 339 338 337 339 342 342 341 342 345 345 345 345 343 340 342 344 345 345 344
331 334 337 339 338 338 338 337 336 337 338 338 338 338 339 340 342 342 341 341 340 339 338 338 339 341 342 342 341 340 339 337 336 335 336 337 337 336 333 331 329 328 325 324 323 326 334 338 340 340 340 341 340 340 340 334 330 333 337 339 343 346 345 344 342 339 338 336 336 341 341 341 340 340 344 345 346 346 343 341 343 344 344 344 343
335 337 338 340 340 340 339 339 338 337 337 336 337 338 339 340 341 341 341 340 340 340 339 339 340 340 341 341 341 342 341 339 338 337 337 337 338 338 337 335 334 334 332 330 326 327 334 338 338 339 339 340 340 340 340 336 331 331 334 337 342 346 345 343 342 339 338 334 338 341 339 340 339 339 343 344 345 345 344 342 343 343 344 345 344
330 333 334 335 334 334 334 334 336 337 337 336 336 337 338 338 339 340 340 339 339 339 339 339 340 340 340 341 341 341 341 341 340 339 339 339 339 339 339 338 336 336 336 336 333 331 334 337 337 338 339 339 339 339 339 338 334 330 330 334 340 346 345 343 341 340 337 335 339 341 337 340 339 339 341 343 344 343 344 344 343 343 344 344 344
325 327 328 329 328 329 329 329 330 332 334 335 336 336 337 337 338 340 339 338 338 338 338 339 338 338 339 341 340 339 339 341 341 341 339 339 340 339 339 338 337 338 337 338 338 336 336 337 337 336 337 338 339 340 339 339 338 333 329 331 337 343 345 343 341 339 337 335 340 340 338 339 338 340 341 342 343 342 344 344 344 343 343 343 344
323 324 325 327 329 329 328 328 328 328 329 331 332 334 336 337 338 339 338 336 337 337 337 337 337 337 338 339 340 339 338 339 340 341 339 338 338 339 339 338 337 338 338 338 339 340 339 339 339 338 337 335 335 338 339 340 339 336 331 329 334 341 345 343 341 339 335 336 340 339 340 339 337 340 341 341 341 342 344 344 344 343 343 343 343
320 322 323 325 326 327 327 328 328 328 328 328 329 331 333 335 337 338 338 337 336 336 335 336 336 336 337 338 339 339 339 337 339 340 340 339 338 339 338 337 336 336 338 338 338 340 340 340 340 340 339 336 334 336 338 339 338 336 332 329 332 339 344 343 341 339 335 336 340 338 339 341 340 340 342 342 341 343 345 343 343 342 342 343 342
315 317 318 319 320 321 322 323 324 325 327 327 328 329 330 332 334 335 337 338 337 336 336 336 335 335 336 337 338 338 339 338 339 339 339 340 340 340 338 337 335 334 336 335 335 338 340 340 340 340 339 340 339 339 340 339 337 335 332 330 331 337 342 344 341 339 336 336 339 338 339 342 343 343 342 343 342 343 345 343 342 342 342 342 342
311 313 313 314 314 315 316 317 319 321 323 325 326 327 328 329 330 332 334 335 336 337 337 337 336 336 336 336 335 335 337 338 339 339 338 339 340 340 339 338 337 336 334 332 333 334 337 339 339 339 338 338 339 339 341 340 339 337 334 332 332 335 341 344 340 338 337 334 337 339 338 341 343 344 342 343 342 342 343 342 341 341 342 342 341
308 309 310 311 311 312 312 313 314 316 319 321 323 324 325 326 327 328 330 331 333 335 336 336 336 336 335 335 336 335 335 336 336 336 336 337 336 337 338 338 337 337 334 332 332 332 334 336 337 338 339 337 336 336 338 339 340 339 338 336 335 336 339 343 340 339 338 331 333 339 339 340 341 342 343 342 343 343 342 341 340 340 342 342 341
307 307 308 308 309 309 308 310 312 314 315 317 319 321 322 323 324 325 326 327 329 330 332 333 334 335 335 335 335 336 335 334 333 332 331 333 334 335 336 335 335 335 335 334 334 334 333 334 335 337 340 339 336 334 335 337 338 339 339 339 338 337 338 342 340 339 340 332 332 337 339 340 339 340 343 343 343 343 342 342 340 341 343 342 342
306 306 306 306 307 307 305 307 311 313 313 314 315 316 318 319 320 322 322 323 325 326 328 329 331 333 334 335 335 335 335 333 332 330 329 332 334 335 334 334 334 335 335 333 334 336 336 334 334 335 339 340 338 335 335 337 338 338 339 340 340 339 338 342 340 339 340 336 336 338 338 339 337 338 341 341 342 344 343 342 340 341 342 342 342
304 304 303 303 305 305 303 304 308 310 310 310 311 312 314 315 316 317 319 320 321 323 325 327 328 329 330 332 333 334 334 334 333 331 331 332 332 332 334 336 337 337 335 334 333 335 336 335 334 334 337 339 339 337 335 336 337 337 338 340 341 340 339 342 341 340 340 338 339 338 337 338 335 335 337 339 341 342 340 339 339 340 341 341 341
303 303 302 302 303 303 302 301 303 304 305 306 307 310 311 312 312 314 315 316 318 320 321 323 325 327 327 329 331 332 333 333 333 333 332 333 332 330 329 332 335 336 335 334 333 333 334 333 334 333 335 336 337 336 334 335 336 335 336 339 341 341 339 341 340 340 340 339 339 338 337 335 333 333 333 337 339 339 338 337 338 340 341 341 341
303 302 301 302 302 302 302 301 302 302 302 302 303 305 306 306 306 307 311 313 315 317 318 320 321 324 325 327 328 330 331 332 333 333 333 333 333 332 328 325 326 332 334 334 334 333 332 332 333 334 334 334 334 335 332 332 333 333 334 336 340 342 341 340 340 340 339 338 339 338 337 333 330 331 333 338 339 337 338 338 339 341 340 340 341
303 301 300 301 302 302 301 301 301 302 302 301 301 301 301 301 300 301 304 306 309 312 314 316 317 319 322 324 326 327 328 330 331 332 333 333 333 333 331 326 323 326 330 332 333 334 333 332 332 333 334 333 332 332 331 330 329 330 331 333 337 343 343 340 340 339 338 338 339 338 336 335 331 331 331 337 340 339 338 337 339 341 340 340 340
302 301 299 299 301 301 301 300 300 301 301 301 300 300 299 299 299 299 299 300 302 304 307 310 313 316 317 320 322 324 326 327 328 329 330 332 333 332 332 331 329 327 328 330 331 333 333 331 331 331 332 333 331 330 330 329 328 328 328 331 333 339 344 342 338 338 339 338 339 339 337 338 337 334 332 334 340 341 338 334 337 340 339 340 339
301 300 299 298 299 300 300 300 299 300 300 300 299 299 298 298 298 297 298 298 298 299 300 303 307 312 315 316 317 319 321 323 325 326 327 328 330 332 333 332 332 331 329 330 330 331 332 331 330 329 329 329 330 329 329 329 329 328 327 329 330 334 341 341 339 337 340 338 338 339 337 340 340 338 335 333 338 341 338 334 337 340 340 339 339
300 299 298 298 298 298 299 300 299 299 300 299 298 298 297 297 297 296 296 296 297 297 298 299 301 306 310 312 314 316 318 319 320 322 324 325 326 329 331 332 333 332 331 331 331 330 331 332 331 330 329 327 328 328 328 328 329 330 329 329 329 332 337 339 340 338 340 340 338 339 338 339 341 340 338 335 338 340 339 336 336 339 341 341 340
298 298 298 297 297 297 298 299 299 299 300 299 298 297 297 296 296 296 296 296 296 296 297 298 299 301 302 304 308 313 317 318 319 320 321 322 323 325 327 330 332 332 329 330 332 332 331 332 332 331 330 328 327 327 327 327 329 330 331 331 331 333 335 338 341 340 339 340 339 339 338 339 340 340 340 338 339 339 339 338 338 339 341 342 340
298 298 297 297 297 297 297 298 298 298 298 298 297 297 296 296 296 296 296 296 296 296 297 298 299 299 298 300 304 308 313 316 318 319 320 322 323 323 324 327 330 331 330 329 331 332 331 330 332 332 331 329 328 329 328 328 329 329 332 336 336 336 337 338 340 340 339 338 338 338 337 339 340 340 340 339 339 340 339 338 339 338 339 340 338
297 297 297 297 297 296 296 297 297 297 297 297 297 297 296 296 296 296 296 295 296 295 296 298 298 298 298 300 302 302 304 307 310 314 318 320 322 323 324 326 328 330 330 331 332 332 331 331 332 332 332 331 331 331 330 329 329 328 330 335 338 339 339 339 339 339 339 338 337 336 335 337 339 339 339 339 339 339 339 339 338 337 338 339 339
296 297 297 296 296 296 295 296 296 296 296 296 296 296 296 296 296 296 296 296 296 295 296 296 297 297 298 301 301 299 298 299 301 307 314 317 319 321 323 325 327 329 330 331 332 332 332 331 332 332 332 332 332 332 331 330 328 326 325 329 335 339 339 339 340 340 339 338 338 336 335 337 337 338 339 339 339 338 340 339 337 338 339 338 339
296 296 296 296 296 295 294 295 295 295 295 296 296 296 296 296 296 296 296 296 296 296 296 296 296 297 298 299 299 298 298 298 299 302 305 308 312 315 316 317 320 325 327 329 331 331 332 332 332 332 332 332 333 333 332 330 326 324 325 328 333 337 338 338 339 340 339 338 337 335 335 336 335 336 338 339 337 336 340 340 338 338 338 338 339
295 295 295 296 295 294 294 295 295 295 295 295 296 296 296 296 296 296 296 296 296 295 296 296 296 297 297 298 298 298 298 298 299 299 298 300 304 306 307 306 309 316 321 325 328 330 331 332 332 332 331 332 334 332 332 330 324 322 325 329 334 337 337 338 338 338 338 337 336 334 335 335 334 335 335 337 336 335 337 339 339 338 338 339 339
294 294 294 294 294 293 293 294 294 294 295 295 295 296 296 296 295 296 296 295 295 295 295 296 296 296 297 297 297 297 298 298 298 298 298 299 300 300 301 303 309 313 314 316 322 327 329 330 332 333 332 333 334 332 331 329 324 321 323 328 333 335 335 336 337 337 337 337 336 334 334 333 332 334 334 335 335 335 336 338 338 339 339 339 338
293 293 293 293 292 292 293 294 294 294 295 295 295 295 295 295 295 295 295 295 295 295 295 295 296 296 296 296 296 297 297 298 298 298 298 299 299 297 299 306 310 309 308 309 313 320 326 328 330 332 333 333 334 333 331 329 325 323 324 327 331 333 334 335 336 335 335 336 335 334 334 332 331 333 334 334 335 335 336 338 338 339 339 338 338
292 292 292 292 292 292 293 293 293 294 294 295 295 294 295 295 295 295 295 295 295 295 295 295 295 295 296 296 296 297 297 298 297 297 298 298 298 298 300 304 305 306 307 308 308 311 318 324 328 331 333 333 334 333 332 330 328 326 326 327 329 331 332 334 334 334 334 334 335 334 332 331 330 331 331 332 334 335 337 338 338 338 339 338 337
291 291 291 292 292 292 292 293 293 294 294 294 294 294 294 294 294 295 295 295 295 294 294 294 295 295 295 295 296 296 297 297 297 297 297 298 297 298 300 301 302 306 309 307 304 303 307 313 321 328 331 332 333 333 332 330 328 327 326 328 329 330 332 333 333 333 333 333 333 333 330 328 325 326 328 330 333 334 336 338 338 338 337 337 337
291 291 292 292 292 292 292 292 293 293 293 294 294 294 294 294 294 294 294 295 294 294 294 294 294 294 294 295 295 295 296 296 297 297 297 297 297 298 300 300 303 308 308 304 301 299 300 304 312 320 326 330 333 333 333 330 327 325 325 327 329 330 332 333 333 332 332 333 332 331 329 326 322 322 326 329 332 334 335 336 337 338 337 337 337
291 291 292 292 292 292 292 292 292 293 293 293 293 293 293 293 293 293 293 294 294 294 294 294 294 294 294 294 295 295 295 296 296 297 296 296 297 298 299 300 302 305 305 303 300 298 299 300 305 313 320 327 331 331 331 330 327 325 325 326 328 329 331 332 332 332 332 332 330 329 328 326 323 323 325 327 329 332 335 336 337 337 336 337 337
291 291 292 292 292 292 292 292 292 292 292 293 293 292 292 292 292 292 293 293 293 294 293 293 293 293 294 294 294 294 295 295 295 296 296 296 297 297 299 300 301 302 302 302 300 300 300 300 303 309 315 322 328 329 329 329 326 325 326 327 328 328 329 331 331 331 332 331 330 329 328 327 326 325 326 326 326 331 336 336 336 337 336 336 336
291 291 291 291 292 292 292 292 291 292 292 292 292 292 292 292 292 292 292 293 293 293 293 293 293 293 293 293 294 294 294 294 295 295 295 296 296 297 298 300 300 300 301 301 301 301 301 302 303 306 311 316 323 328 328 328 326 325 326 327 327 327 328 330 331 331 331 331 331 331 330 329 329 328 327 327 327 331 336 336 336 337 335 336 336
291 291 291 291 291 291 291 291 291 291 291 291 291 291 291 291 291 291 292 292 292 292 292 292 292 293 293 293 293 294 294 294 294 294 295 296 296 297 298 299 300 300 301 301 301 301 302 302 303 305 308 310 316 324 326 326 325 324 325 326 327 327 328 330 330 331 331 331 330 330 331 331 330 329 329 330 330 332 335 335 337 337 335 336 336
290 291 291 291 291 291 291 291 290 291 291 291 290 290 290 290 290 291 291 292 292 292 292 292 292 293 293 293 293 294 294 294 294 294 295 295 296 297 298 298 299 300 301 301 301 302 301 301 303 304 306 308 310 316 323 326 325 324 324 324 326 327 327 328 329 330 330 330 330 330 330 330 331 331 331 332 332 332 333 333 335 335 334 335 335
290 290 291 291 291 291 290 290 290 290 290 290 290 290 290 290 290 290 291 291 291 291 291 292 292 292 293 293 293 293 293 293 294 294 294 295 296 296 297 298 298 300 301 301 301 301 301 301 303 305 306 306 306 308 316 323 324 323 324 325 326 327 328 328 329 329 329 329 329 329 329 329 330 331 332 332 332 330 329 330 331 331 332 334 335
290 290 291 291 290 290 290 290 290 289 289 289 289 289 289 289 289 290 290 290 290 290 291 291 291 291 292 292 292 293 293 293 293 294 294 295 296 296 297 297 298 300 301 301 301 301 301 301 303 305 305 305 304 305 308 316 323 323 323 325 326 327 328 328 328 328 328 328 328 328 328 328 329 330 331 331 330 328 327 328 329 331 333 334 335
290 290 290 290 290 290 290 290 289 289 289 289 289 288 288 289 289 289 289 289 289 289 289 289 290 290 290 291 291 291 291 291 291 291 292 293 295 296 297 297 298 299 301 301 302 301 301 301 302 304 305 304 304 304 304 309 318 321 322 324 326 327 328 328 328 328 327 326 327 328 328 328 328 328 329 329 327 326 325 326 329 332 333 335 334
290 290 290 289 289 289 289 289 289 289 288 288 288 288 288 288 288 288 288 287 287 288 288 288 288 288 289 289 290 290 289 289 289 289 290 291 293 294 296 297 298 299 300 301 301 301 301 301 302 303 305 304 304 304 303 305 312 319 321 322 324 326 328 328 328 327 327 326 326 327 327 327 328 326 327 327 327 327 326 326 329 332 333 333 333
289 289 289 289 289 289 289 289 289 288 288 287 287 287 287 287 287 287 286 286 286 287 286 286 287 287 288 288 288 288 288 288 288 288 289 289 290 292 294 296 297 298 299 300 301 301 301 300 301 303 304 304 304 303 303 305 309 315 319 321 322 323 324 325 326 326 326 325 325 325 325 326 327 327 326 327 327 327 327 327 329 331 332 332 330
288 289 289 289 289 289 289 288 288 288 288 287 287 287 287 286 286 286 286 286 285 285 285 285 286 286 286 286 286 286 287 287 288 288 288 288 288 289 292 295 297 298 299 300 301 301 301 300 301 302 303 303 303 303 302 304 306 311 317 320 320 321 322 321 322 323 324 324 324 323 322 322 324 326 327 328 328 328 328 329 330 330 331 331 330
288 289 288 289 289 289 289 288 288 288 287 287 286 286 286 286 286 285 285 285 285 285 285 285 285 285 284 285 285 285 286 286 286 286 287 287 287 287 289 292 296 297 298 299 300 301 300 300 300 301 302 303 303 303 302 302 303 306 314 321 320 320 322 321 319 320 321 322 322 322 321 320 320 323 324 325 327 329 329 330 330 329 330 331 331
288 288 288 288 288 288 288 288 288 287 287 287 286 286 286 286 285 285 285 284 284 284 284 284 284 283 283 283 283 283 284 284 284 284 285 286 286 286 287 290 294 297 298 299 300 300 300 299 299 300 301 303 303 303 302 302 302 302 307 316 320 321 322 321 320 318 317 319 321 321 321 320 321 322 322 323 326 329 329 329 330 329 329 330 331
287 288 288 288 288 288 288 288 288 287 287 287 286 286 285 285 284 284 284 283 284 284 283 283 283 282 282 282 282 282 282 282 282 283 285 285 286 287 287 290 293 295 297 298 299 299 299 298 299 300 300 302 303 303 303 302 302 301 302 306 312 319 322 320 321 319 314 316 320 321 321 322 322 324 323 323 325 328 328 328 328 329 329 330 330
287 287 287 288 288 288 288 288 287 287 286 286 286 286 285 284 284 283 283 283 283 283 283 282 282 282 281 281 281 281 281 281 282 284 285 286 287 287 288 290 293 294 295 296 297 297 297 297 298 299 300 302 303 304 304 303 302 302 302 302 304 311 319 320 320 319 315 315 318 320 322 323 324 324 324 323 324 326 327 327 328 328 329 329 329
287 287 287 287 287 287 287 287 287 286 286 286 286 285 285 284 284 283 283 283 282 282 282 282 281 281 281 281 280 281 281 281 283 284 284 284 285 286 289 291 293 294 295 296 296 296 297 298 299 298 300 302 304 303 303 303 301 301 301 302 301 304 314 319 319 318 318 318 318 319 320 322 324 325 324 323 323 325 325 326 328 328 329 329 328
286 287 287 287 287 287 287 287 286 286 286 286 285 285 284 284 283 283 282 282 282 281 281 281 281 280 280 280 280 280 280 281 282 282 282 282 283 284 286 288 290 292 294 295 296 297 297 298 298 299 301 302 302 302 302 302 302 301 301 301 301 301 308 317 319 318 319 319 319 319 319 320 322 323 324 324 324 324 323 324 327 328 327 328 328
286 286 286 286 287 287 286 286 286 285 285 285 285 284 284 283 283 282 282 282 281 281 281 280 280 280 279 279 279 279 280 280 280 280 281 282 282 282 283 285 286 288 290 293 295 297 298 297 297 298 299 300 300 300 301 301 301 301 300 300 301 300 302 312 319 318 318 320 319 319 319 319 321 322 322 323 324 324 324 324 327 327 325 326 327
286 286 286 286 286 286 285 285 286 285 285 285 284 284 283 283 282 282 281 281 281 280 280 280 279 279 279 279 279 279 279 279 279 280 280 281 281 282 282 284 285 286 288 290 292 295 297 297 297 297 296 296 298 299 300 300 300 300 300 300 301 300 300 305 314 319 319 320 320 319 319 319 320 320 321 323 324 324 324 325 326 326 324 325 325
Wind_Speed
18 10 10 12 12 12 12 8 5 6 5 6 6 6 6 7 7 7 7 7 6 6 6 6 5 5 5 6 6 5 5 6 6 7 6 6 6 7 7 8 9 10 11 11 11 11 10 10 10 10 10 10 9 9 10 10 11 12 12 13 15 17 17 17 17 15 14 11 10 11 11 10 9 10 13 15 18 19 21 19 19 20 21 22 22
16 10 9 12 13 13 14 10 6 5 4 6 7 6 6 7 9 9 9 8 8 8 8 8 8 7 7 6 6 6 6 6 6 7 7 7 7 7 7 8 9 10 11 12 13 12 11 11 11 11 11 11 11 12 12 11 11 12 12 13 15 18 18 19 17 15 14 11 11 12 12 11 10 10 12 16 18 20 21 20 20 22 23 23 22
14 11 10 12 14 15 14 12 10 7 5 6 7 8 8 8 9 9 9 10 10 10 11 10 10 9 9 9 8 8 7 6 6 7 8 8 8 7 7 7 7 8 10 11 13 14 13 12 12 12 13 13 13 14 14 13 11 12 12 13 15 17 19 20 18 16 14 12 13 13 13 12 10 11 13 16 18 20 21 20 21 23 24 24 23
17 14 14 14 14 15 14 13 11 10 8 8 8 9 9 10 10 10 10 10 11 12 12 12 12 11 11 11 10 9 10 9 8 8 8 8 9 9 8 8 8 8 8 9 11 12 13 13 13 14 14 14 14 15 16 15 12 12 12 13 14 17 20 20 19 17 15 14 14 14 15 13 12 13 15 17 18 20 20 20 21 22 23 23 23
22 19 18 17 17 16 15 14 12 11 10 10 10 9 8 9 9 10 11 11 12 12 13 13 13 13 12 13 12 11 11 11 10 10 9 9 9 10 11 11 11 11 10 9 9 11 12 13 13 14 15 15 15 16 17 17 15 13 12 12 14 18 20 20 20 18 17 15 16 17 16 16 14 14 16 19 19 20 20 20 21 21 22 24 24
23 21 20 19 19 18 17 16 13 12 10 11 11 9 8 9 9 9 11 11 12 13 13 14 14 14 13 13 14 14 13 13 12 11 10 10 10 11 12 13 13 13 13 12 11 11 12 13 13 14 15 16 16 17 18 19 17 16 14 13 14 18 21 21 21 20 18 17 18 19 18 18 16 16 18 19 19 21 21 21 21 22 22 24 23
24 24 22 21 21 21 19 17 16 14 12 10 10 10 10 9 10 9 10 10 11 13 14 15 15 15 14 14 15 15 15 15 14 13 12 12 13 13 13 14 14 14 14 14 13 13 13 14 14 14 15 16 17 18 19 20 20 19 16 15 15 17 21 22 21 21 19 18 20 20 20 19 17 18 19 20 20 21 21 22 22 22 23 23 22
26 26 24 24 23 23 21 20 20 18 17 13 10 9 10 10 11 10 10 11 13 14 14 15 16 16 15 15 15 15 16 16 15 15 14 14 15 15 15 15 15 16 16 15 15 15 15 15 15 14 15 16 17 18 20 21 22 22 19 17 16 17 21 22 22 21 20 20 21 22 21 20 19 19 20 20 21 20 22 23 22 22 23 23 24
29 28 26 26 24 23 22 22 21 20 20 18 16 13 11 11 11 11 11 12 14 15 16 16 16 17 17 16 15 16 16 15 15 16 15 15 16 16 17 17 16 17 17 17 17 17 17 17 17 16 15 16 17 19 21 23 23 24 22 20 18 18 21 23 23 22 21 21 21 22 23 22 21 21 20 21 21 21 22 23 22 22 23 25 26
29 28 28 27 26 24 24 23 22 22 20 20 19 18 16 14 12 11 12 13 14 16 17 17 18 17 17 17 16 16 17 16 16 16 16 16 17 18 18 18 18 19 18 18 18 18 19 19 19 18 18 18 19 21 23 24 25 25 23 22 20 19 22 25 24 24 23 22 22 22 23 23 23 22 21 21 23 22 21 22 22 23 24 25 27
29 29 28 28 28 26 26 25 24 24 22 22 21 21 20 19 17 15 14 14 14 16 17 18 19 19 18 18 18 17 17 18 18 18 18 17 18 19 19 19 19 20 20 20 20 20 19 20 21 21 20 20 21 22 24 25 26 27 26 23 21 21 24 26 26 26 25 25 24 23 24 24 24 24 22 21 23 23 22 22 23 24 24 26 28
30 29 29 28 28 28 28 27 26 25 24 24 23 22 22 22 22 20 19 17 16 16 17 17 18 20 20 21 20 19 18 19 19 20 21 20 19 20 20 20 21 22 22 21 22 22 21 20 21 21 20 21 22 22 24 25 26 28 28 26 23 23 25 27 28 28 27 26 26 25 25 25 24 25 23 22 22 22 23 23 24 24 25 27 28
29 29 29 28 29 29 30 29 29 28 27 26 25 24 23 23 22 22 22 21 20 19 19 18 18 19 21 22 22 22 21 21 21 20 21 21 21 22 22 22 23 23 24 23 24 24 23 22 22 21 20 20 22 22 22 23 25 27 29 29 25 24 25 27 29 29 28 27 27 27 27 26 25 26 25 23 22 23 25 25 25 25 27 29 28
28 28 28 29 29 29 31 31 30 29 29 28 27 27 26 25 23 23 23 22 22 21 21 21 20 20 20 22 23 23 23 23 24 22 21 21 22 23 23 24 25 25 24 24 26 26 24 24 24 23 21 20 21 21 22 23 24 26 29 31 28 26 27 29 30 29 28 28 28 28 29 28 26 27 27 25 23 24 25 25 25 26 27 28 28
28 27 28 29 29 29 30 31 31 30 29 28 28 28 27 27 26 25 24 23 23 22 21 21 21 20 21 22 22 23 24 25 25 25 24 23 23 23 23 24 26 26 25 24 26 27 26 25 25 25 23 22 22 21 22 23 24 25 27 30 30 28 28 31 31 30 29 28 28 30 30 30 27 27 27 26 26 25 25 26 26 27 27 28 29
27 26 27 28 29 29 30 30 30 30 29 29 29 28 28 28 27 27 26 25 25 25 24 22 21 21 21 21 21 22 24 25 25 27 28 27 25 24 23 24 26 27 27 26 26 27 27 27 28 28 26 25 23 22 22 23 24 26 26 29 31 30 30 30 32 32 30 29 29 31 31 30 29 27 27 28 29 28 26 26 28 29 29 30 30
26 26 27 28 28 29 29 30 29 30 30 30 29 29 29 29 28 28 27 26 26 26 26 25 24 23 22 22 22 22 23 24 25 27 28 29 28 26 24 25 26 28 29 29 28 28 28 28 29 28 28 28 26 24 24 24 25 26 27 29 32 33 33 32 33 34 32 32 32 33 32 31 30 27 27 28 30 30 29 28 29 31 32 32 31
25 27 28 28 27 28 30 31 31 31 31 31 31 31 31 30 30 30 29 28 27 27 26 26 26 25 24 23 23 23 23 23 24 27 28 29 30 29 28 28 28 28 29 30 30 29 28 29 29 28 28 29 28 27 25 25 26 28 28 29 32 34 35 34 33 35 35 34 34 35 34 32 31 29 28 29 30 30 31 31 30 32 34 34 32
26 26 27 28 28 29 30 32 33 32 32 32 33 33 33 32 33 32 31 30 29 28 27 27 26 26 26 26 25 25 24 24 24 25 27 28 29 31 32 32 30 30 31 31 31 30 30 30 30 29 28 29 29 28 27 27 27 29 30 31 32 33 37 37 34 35 37 36 36 38 37 34 33 31 30 31 31 31 32 33 32 32 34 34 34
26 26 28 28 28 29 29 31 32 32 32 32 33 34 34 34 35 34 33 32 32 31 30 29 28 27 28 29 29 28 27 27 26 26 27 27 29 33 35 35 32 32 33 33 33 32 31 31 32 31 31 31 31 30 28 28 29 30 31 33 33 34 37 36 33 34 37 39 38 40 40 34 33 33 33 34 33 33 33 34 35 33 33 34 36
26 27 27 27 28 28 28 29 29 29 29 30 31 32 34 35 35 35 35 34 33 33 32 32 30 29 29 30 30 31 31 30 30 28 29 29 30 32 35 37 35 35 34 34 34 34 33 33 33 32 32 33 33 31 29 29 30 32 33 33 33 34 37 33 32 35 37 40 39 40 41 35 34 35 35 36 35 35 34 35 37 35 33 34 36
25 25 26 25 27 27 26 26 27 27 26 28 29 31 33 35 35 36 36 36 35 33 33 33 33 33 32 32 31 32 33 33 32 31 30 30 30 31 34 36 36 35 35 35 35 35 34 34 35 34 34 34 34 33 31 30 30 32 34 34 33 35 39 37 35 38 39 40 40 40 41 38 35 36 37 36 35 36 36 36 37 36 35 35 37
23 23 23 23 23 24 24 24 24 25 26 27 29 31 33 33 33 34 35 37 37 35 33 32 34 35 36 34 33 32 32 33 32 31 31 31 31 31 32 34 35 34 35 36 36 36 36 35 36 36 36 36 35 33 31 30 30 31 33 34 35 36 39 41 40 42 42 42 43 42 42 40 36 36 37 36 35 36 37 37 38 38 37 37 39
19 18 19 20 21 22 22 22 22 23 25 28 30 32 33 32 32 33 34 35 36 36 34 33 34 36 36 34 33 33 33 33 32 32 32 32 32 32 33 33 35 34 34 38 39 38 36 35 35 36 38 38 36 35 32 31 32 32 33 34 36 38 39 41 42 43 44 42 46 45 42 41 37 35 37 38 36 35 38 39 40 40 39 39 39
16 16 18 18 19 21 22 21 21 22 26 29 31 32 33 33 33 33 34 34 35 35 34 34 34 34 35 35 34 35 35 34 33 32 33 33 32 32 32 33 34 35 34 35 38 38 36 35 36 38 40 40 39 37 34 33 34 34 34 33 34 37 39 41 43 44 45 43 45 46 44 44 40 36 36 37 36 35 38 40 40 41 41 41 40
15 17 17 17 18 20 22 21 21 24 28 30 31 32 33 34 34 34 34 34 34 34 34 35 34 33 33 34 36 37 37 36 34 33 34 34 33 33 33 33 33 33 34 34 36 36 37 38 38 40 41 42 41 40 37 35 35 34 34 33 33 36 38 41 44 44 45 44 44 45 46 47 44 40 37 36 35 35 38 39 40 41 42 43 42
15 17 17 16 17 21 22 21 23 26 29 30 31 32 33 33 33 34 35 34 34 33 33 34 34 33 32 33 36 37 37 36 35 35 36 36 36 35 35 36 35 34 33 34 35 36 37 38 39 41 42 43 43 41 40 38 37 35 33 33 33 35 37 39 43 44 45 46 46 46 48 49 46 42 40 38 36 36 39 39 40 42 43 44 44
13 16 17 16 18 21 21 21 24 27 29 30 32 33 33 34 34 34 35 34 34 34 34 33 32 32 32 33 34 36 36 35 36 37 36 36 37 38 38 37 36 35 35 35 35 35 36 37 38 41 42 43 43 42 42 40 39 37 35 34 33 35 37 39 42 43 45 47 48 49 50 50 47 42 40 39 37 36 37 38 40 42 43 45 46
13 16 17 17 19 20 21 23 26 28 29 31 32 33 34 35 35 36 36 35 35 35 35 33 33 32 32 33 34 34 35 35 36 37 37 36 38 40 40 37 35 36 37 37 36 36 36 36 37 40 42 42 43 43 42 41 40 38 36 35 35 35 37 40 42 43 45 47 48 51 52 51 48 44 42 40 38 37 36 36 40 43 43 45 47
15 17 19 19 20 21 22 24 27 29 30 30 31 33 34 35 36 36 36 36 37 37 36 34 34 33 33 34 34 34 34 35 36 36 37 37 38 39 39 38 38 38 37 37 37 37 37 36 37 40 42 42 43 44 43 42 41 39 37 36 36 36 37 40 44 45 46 48 49 52 54 52 48 45 44 43 40 38 36 36 41 44 43 45 49
17 20 20 20 21 22 24 26 28 29 29 30 31 33 35 35 35 35 35 35 36 37 37 37 36 35 35 35 35 34 34 35 36 36 36 37 38 38 37 39 40 37 35 36 37 38 39 39 38 39 40 41 44 45 44 43 41 39 37 37 37 36 38 41 44 46 46 48 50 52 54 54 51 46 45 46 44 39 35 37 41 43 44 47 50
19 20 20 20 22 23 25 26 28 29 29 29 30 32 34 34 34 34 33 33 33 34 35 37 37 37 37 36 36 36 36 36 36 36 37 38 38 36 36 37 37 36 36 37 38 40 40 40 40 39 39 44 47 45 45 44 41 40 38 37 38 37 38 41 43 45 46 47 48 50 52 53 52 49 48 48 45 40 36 38 39 42 46 48 49
18 18 18 19 21 23 24 26 28 29 30 28 29 32 33 34 34 34 34 35 34 34 35 36 37 37 37 37 37 37 36 37 37 37 38 39 38 36 35 35 34 36 39 39 40 41 41 41 41 39 39 41 45 44 43 43 41 40 38 38 39 38 39 41 43 44 45 47 47 48 49 50 52 52 51 50 45 39 37 39 40 43 48 49 49
16 17 17 19 20 21 23 25 28 30 30 29 30 33 35 36 37 37 37 37 37 37 38 38 38 38 38 38 37 37 37 37 37 38 39 39 38 37 36 34 35 37 38 39 40 40 40 41 41 38 37 38 42 44 41 42 41 38 38 39 38 38 39 40 43 44 44 45 46 46 46 46 49 52 54 53 49 42 39 41 44 48 51 53 52
15 16 17 18 19 21 23 25 28 30 30 31 33 35 36 37 38 38 37 37 37 38 39 40 41 40 40 39 38 38 38 38 38 39 40 39 38 37 37 36 36 37 38 38 38 38 38 38 38 37 35 37 38 42 40 40 41 38 38 38 38 38 39 40 42 44 46 45 44 45 45 45 46 50 52 51 50 45 41 43 45 50 54 55 56
13 15 16 18 20 21 24 27 30 32 32 33 34 35 36 37 38 37 36 35 35 36 38 39 41 41 40 39 39 38 39 39 39 39 40 40 39 38 37 37 37 37 37 37 36 36 36 37 38 36 34 35 36 35 39 41 40 40 40 38 39 40 39 40 42 44 46 44 44 44 44 45 45 48 49 48 47 44 42 44 45 50 57 60 60
12 15 17 19 21 22 26 29 32 33 33 32 33 34 35 36 37 36 34 34 35 36 37 38 38 39 39 39 39 39 39 39 39 39 40 40 40 39 38 38 38 37 37 37 36 34 34 36 37 35 32 31 35 36 36 42 41 40 40 39 41 42 41 41 41 43 44 43 44 44 44 44 45 47 47 47 44 38 37 42 44 45 49 57 62
13 16 18 19 21 24 28 31 32 33 32 32 32 33 34 35 34 33 32 33 33 35 37 37 37 37 37 38 38 39 40 40 40 39 40 40 40 40 39 38 37 37 36 36 35 35 33 33 35 36 33 31 32 36 36 37 42 41 40 42 42 42 42 42 41 42 43 45 44 43 44 44 44 46 47 47 45 39 34 33 37 36 39 51 59
15 17 19 19 21 25 28 30 31 32 32 32 32 33 33 33 32 32 31 31 33 34 35 36 36 36 36 37 38 39 39 39 39 39 39 40 40 40 40 39 37 36 35 35 34 34 34 32 32 34 35 34 32 33 37 37 35 36 37 41 43 42 42 42 41 40 41 46 48 46 44 43 44 44 45 47 44 41 36 29 29 28 35 53 61
16 17 18 19 22 26 28 29 30 31 32 32 33 33 32 31 31 31 31 31 33 34 33 34 35 35 36 37 38 38 39 40 41 41 40 40 41 41 40 39 37 35 35 34 33 33 33 33 32 32 33 35 35 33 34 38 31 27 29 33 38 40 42 42 42 43 39 38 42 45 44 43 43 42 42 43 40 38 35 29 28 25 29 46 52
16 16 17 19 23 25 27 28 29 31 31 31 31 31 29 29 29 29 30 31 32 33 33 33 35 36 36 36 37 38 40 42 42 41 40 40 41 41 40 39 37 36 35 35 34 32 31 32 32 30 29 30 33 33 31 33 30 20 18 23 31 36 38 41 41 43 43 38 34 34 37 38 38 38 37 36 36 34 32 30 30 29 30 37 39
13 15 17 19 22 24 25 26 27 28 29 29 29 28 27 27 28 29 30 31 30 31 32 33 34 34 34 35 37 39 41 41 41 41 41 40 39 40 40 40 38 36 36 36 35 32 30 29 29 29 28 26 28 31 30 25 21 18 14 12 17 22 27 32 36 39 41 42 39 32 30 32 32 34 34 32 32 32 32 32 34 36 37 37 37
11 14 17 19 20 22 22 23 24 26 27 28 27 27 28 29 29 29 29 30 30 30 31 32 32 34 36 37 38 39 40 41 41 40 41 41 40 40 40 40 39 37 35 35 34 32 29 28 27 27 27 25 25 29 29 22 18 22 18 10 7 8 11 16 25 34 38 40 44 41 33 32 30 29 31 30 31 32 33 36 39 41 41 41 42
10 14 16 17 18 19 20 21 23 25 26 27 27 28 30 32 31 30 30 30 31 33 34 33 33 35 37 38 38 38 40 42 43 42 42 43 43 42 41 40 39 37 34 34 34 33 30 27 26 26 26 25 24 25 28 25 23 21 13 8 5 6 7 8 11 22 34 35 39 44 40 35 32 30 29 28 30 33 35 38 42 45 44 43 44
11 14 15 16 16 17 19 21 22 24 25 27 28 29 31 33 34 34 33 32 31 32 33 36 38 39 39 39 40 41 41 42 43 43 43 44 45 44 41 39 39 37 35 33 34 34 31 28 26 26 27 26 24 25 27 27 27 26 19 11 5 7 9 11 10 13 24 30 33 39 41 40 37 35 33 31 31 33 35 38 41 45 46 45 44
11 13 14 14 15 16 18 20 22 23 25 26 28 30 30 31 31 31 30 30 29 28 28 33 38 42 44 45 46 46 43 42 42 41 40 41 43 43 40 38 38 38 36 34 34 33 32 31 28 27 28 29 27 24 25 26 26 29 31 27 22 16 10 10 9 6 12 22 28 32 36 39 41 40 38 35 34 34 35 36 38 43 45 45 46
12 12 14 15 16 17 19 21 22 22 24 26 28 29 29 28 27 25 25 25 27 31 33 35 37 40 43 46 48 48 45 43 42 38 35 37 40 41 38 37 37 38 37 35 35 34 34 34 30 28 30 30 27 22 22 24 22 25 31 32 36 36 23 13 12 6 5 11 21 30 34 36 39 40 40 39 38 36 37 35 36 42 44 44 46
12 12 15 17 17 18 20 22 23 23 24 26 27 27 27 27 26 24 24 24 25 31 37 38 39 39 41 45 46 47 45 41 37 35 35 37 40 39 35 33 34 35 35 35 36 35 35 34 31 30 31 28 25 23 23 21 18 22 28 26 31 41 36 27 27 18 10 9 13 22 28 33 37 39 40 41 41 41 40 39 38 42 43 43 45
11 13 16 17 17 19 21 23 23 23 24 25 26 26 26 26 25 24 25 26 27 30 34 36 38 39 41 44 44 44 44 39 36 36 38 38 39 39 36 34 34 33 32 33 36 37 35 33 32 31 29 26 24 25 26 23 19 22 24 22 23 31 36 31 35 26 14 13 12 12 17 22 27 34 40 42 44 45 44 43 43 43 42 43 46
11 15 17 17 18 19 20 22 22 22 23 24 25 25 26 25 24 24 26 29 30 31 32 34 36 38 40 42 42 42 42 41 40 39 37 35 36 39 38 36 36 35 33 32 33 35 36 35 33 30 27 25 25 27 28 25 23 22 22 20 19 20 23 21 22 21 15 14 14 13 15 15 15 23 36 43 45 47 47 46 47 46 44 44 45
13 16 17 17 18 19 20 21 23 22 23 24 25 26 26 24 24 24 26 28 30 30 32 33 35 37 39 42 42 42 41 40 41 39 36 34 33 35 36 35 36 35 33 32 32 33 35 37 34 28 26 26 26 28 29 28 24 23 22 21 22 22 18 18 17 16 15 11 13 15 14 17 17 17 29 40 44 46 47 47 49 50 48 46 46
Wind_Direction
4 359 345 5 11 16 13 351 308 284 256 257 262 254 250 253 259 257 259 264 268 266 266 267 270 276 281 288 284 271 260 263 267 268 267 260 254 253 256 260 267 271 275 276 275 274 272 275 276 274 273 274 273 268 266 270 270 261 251 246 237 228 219 217 218 211 213 216 209 218 232 228 212 199 196 190 183 181 174 175 179 175 173 174 169
2 10 354 8 12 18 18 12 357 326 289 272 274 276 270 261 260 255 258 262 266 265 265 267 268 268 267 273 274 273 264 257 258 263 266 266 261 257 258 256 261 266 270 273 273 272 272 273 273 272 271 269 270 270 269 267 266 260 251 244 236 229 221 219 219 213 215 215 215 220 220 216 200 189 185 183 183 179 176 178 180 178 174 174 168
21 27 17 14 15 19 23 19 10 350 325 292 285 289 290 279 268 261 264 263 264 262 262 264 264 263 264 265 264 265 261 256 254 257 261 265 267 268 270 267 266 267 268 270 270 269 269 270 270 269 268 266 264 266 268 268 265 259 252 246 238 230 223 223 223 217 214 213 216 214 208 207 191 180 178 178 179 176 179 181 180 179 175 174 169
45 43 29 19 19 20 24 21 12 355 334 312 297 291 295 290 279 270 270 268 265 262 262 264 261 260 262 262 260 261 258 256 252 250 254 259 264 270 280 287 285 283 280 277 275 273 270 269 268 267 265 264 261 262 264 266 265 258 253 250 241 230 225 225 224 219 214 211 211 206 199 200 186 176 179 178 175 174 180 182 181 181 175 172 170
51 52 43 37 33 28 27 22 14 1 345 328 307 286 288 287 285 278 273 271 271 268 266 266 263 261 261 262 261 259 257 258 256 250 249 255 261 267 275 285 292 293 294 291 287 282 275 269 267 265 263 262 259 259 260 263 264 260 255 253 244 228 225 224 222 221 217 210 204 200 196 195 183 172 178 179 176 176 179 182 182 182 174 170 170
50 52 49 45 39 35 31 23 17 6 353 339 322 304 296 286 289 285 276 274 278 278 274 272 271 271 265 262 260 258 257 256 258 256 254 255 256 262 269 276 284 288 290 289 288 285 278 273 268 264 261 259 257 257 258 259 261 262 260 255 246 230 226 225 223 223 220 210 202 197 194 194 183 170 176 179 179 178 179 183 181 180 176 171 168
50 49 47 44 39 34 31 27 24 16 8 349 332 322 314 302 296 288 281 279 285 284 281 280 279 281 275 267 262 258 257 253 253 254 257 260 258 258 262 267 274 276 279 279 277 278 275 272 269 266 260 255 253 254 257 258 259 262 263 260 251 238 229 228 227 224 219 211 204 197 192 191 185 176 175 178 182 180 178 182 180 179 178 171 166
50 49 48 47 44 38 35 31 28 23 21 12 358 338 323 313 305 297 292 291 293 289 288 287 284 284 281 275 267 264 263 258 255 253 257 263 264 262 262 262 267 269 270 272 270 270 270 268 265 264 262 256 251 250 252 255 257 260 261 261 258 246 232 229 229 222 215 213 207 200 193 186 184 182 177 177 180 179 177 181 182 180 176 170 169
48 48 47 47 45 41 40 35 30 26 23 21 17 5 348 332 318 307 300 299 295 292 293 291 290 287 283 277 271 271 268 263 259 258 261 263 265 263 264 265 267 267 264 265 266 265 266 266 263 260 257 255 252 248 249 250 252 256 259 259 259 252 235 228 226 220 214 215 211 204 196 185 182 184 182 178 176 177 177 182 181 179 176 171 172
48 48 47 46 43 40 39 35 33 29 25 23 20 16 9 360 345 325 309 303 295 293 293 290 290 288 283 280 276 276 273 268 261 262 265 265 267 264 265 267 269 269 263 261 262 261 262 264 264 261 255 251 249 246 246 248 249 251 254 256 257 253 240 228 221 218 215 214 214 208 201 190 183 182 183 180 176 179 181 185 183 179 178 173 173
51 50 48 47 44 41 39 36 33 30 28 25 22 18 14 11 6 355 341 326 309 301 298 292 289 286 284 280 277 276 276 274 268 270 272 267 267 267 270 271 273 274 268 264 262 260 260 262 263 262 260 256 252 246 245 246 247 249 250 253 256 253 242 229 219 217 215 213 216 212 205 196 188 183 182 183 180 181 185 188 186 181 180 177 177
52 52 50 49 47 44 41 39 36 33 32 29 25 20 16 12 8 4 359 350 338 325 317 308 297 292 289 285 279 276 276 275 274 277 278 273 268 267 269 271 274 276 272 268 266 263 260 261 262 262 262 261 257 251 250 248 246 247 247 249 252 253 242 229 220 216 215 215 216 215 208 201 194 187 181 185 184 183 186 186 185 182 181 180 180
51 51 50 49 47 45 43 42 40 39 37 34 30 26 20 14 9 5 1 355 350 344 339 331 320 307 297 292 284 279 279 276 277 279 279 276 271 268 268 271 275 275 273 269 266 265 263 261 261 261 260 262 261 256 254 254 251 247 245 245 246 249 243 231 222 216 216 219 217 215 210 202 197 191 184 184 184 185 187 184 184 183 183 181 179
50 48 47 47 46 44 43 43 43 42 40 38 34 31 26 20 14 8 2 357 351 346 343 340 336 326 315 307 296 289 286 279 278 279 277 274 272 273 272 274 275 274 274 272 269 267 265 263 261 259 259 260 261 259 257 258 258 253 245 242 241 242 240 231 223 217 218 221 217 214 209 202 196 193 188 186 185 187 189 186 185 186 185 184 181
48 46 45 45 43 41 40 41 41 40 38 37 35 32 29 25 20 15 8 2 357 351 345 340 337 333 327 321 313 305 297 289 285 281 274 270 271 274 276 276 276 275 275 274 272 269 267 266 263 260 258 259 260 259 259 261 263 259 248 241 240 238 236 229 221 218 218 221 219 213 209 204 198 196 193 190 190 190 193 193 190 189 188 186 183
45 43 42 41 40 37 36 36 36 35 34 33 32 31 28 25 22 17 13 8 3 359 353 346 339 333 328 325 322 317 310 305 298 290 280 272 269 272 275 276 277 277 277 275 272 271 271 270 267 264 260 258 259 259 258 261 264 262 254 244 240 235 233 228 221 218 217 219 220 214 211 209 203 202 200 196 196 196 196 198 195 192 189 188 184
43 40 37 35 35 34 32 30 29 29 29 28 28 27 24 22 20 16 14 11 7 3 359 353 348 341 333 326 323 320 318 315 310 303 293 281 275 274 275 276 276 275 275 275 273 271 271 271 269 267 264 259 257 258 257 259 262 262 258 248 240 234 230 228 222 219 218 217 218 215 212 211 206 203 204 200 200 199 196 199 198 194 191 188 184
41 38 35 32 31 30 29 25 22 21 21 21 20 20 18 17 15 13 12 10 7 3 360 356 352 348 341 333 327 323 320 318 315 311 305 294 285 281 276 274 274 272 272 272 272 271 268 266 267 266 264 262 259 258 257 257 259 260 260 253 243 235 228 225 223 220 218 217 216 216 212 210 208 204 205 205 201 199 197 199 200 197 193 189 186
40 35 33 31 29 26 25 23 18 15 15 13 12 11 11 9 7 7 6 5 4 2 360 357 353 351 348 343 336 329 323 319 316 314 312 305 295 289 278 272 272 272 272 271 269 268 266 264 264 263 261 261 261 260 259 258 259 259 259 258 249 240 232 224 225 224 218 217 215 215 213 211 210 207 207 209 206 203 201 202 199 197 196 191 189
39 33 30 28 27 24 21 20 17 13 11 9 7 6 4 2 1 0 360 360 358 357 357 357 354 352 350 346 342 337 332 327 321 317 315 312 307 299 288 279 274 269 268 269 269 266 264 264 262 260 258 259 261 260 261 263 263 262 259 259 256 248 238 223 224 231 221 217 215 211 213 214 212 209 209 210 208 206 203 203 199 195 196 192 191
34 31 28 25 23 21 18 17 15 12 9 7 5 2 1 359 359 358 358 358 356 353 351 352 353 352 350 346 343 341 339 335 330 324 319 317 314 311 302 292 281 270 267 266 267 265 262 261 261 258 256 257 259 259 260 264 265 264 261 260 259 252 243 227 222 232 225 217 215 211 212 216 214 208 210 209 208 208 204 201 199 196 195 191 191
27 27 25 22 20 18 15 13 12 10 7 6 5 2 1 360 0 360 359 359 358 356 352 350 350 349 348 346 345 343 340 337 334 330 325 321 316 312 310 305 290 273 268 268 264 262 261 259 259 256 256 256 258 258 259 262 262 264 262 259 258 252 246 237 227 230 229 220 216 213 212 216 216 210 211 210 207 210 208 202 199 198 194 190 191
23 23 21 21 18 15 12 11 10 6 3 4 3 2 2 2 2 1 360 359 358 358 356 352 349 346 345 347 346 344 342 339 336 333 330 327 322 316 313 312 303 283 270 268 264 260 263 261 256 255 257 257 257 257 258 261 260 260 261 257 252 247 242 237 232 229 229 224 217 214 213 216 218 213 212 212 209 210 211 206 201 201 198 194 192
22 20 19 21 18 15 12 9 8 5 3 3 2 3 4 4 3 1 359 358 357 357 357 353 348 345 345 346 344 342 341 339 337 335 334 332 329 324 319 317 314 303 283 271 265 261 263 263 257 255 256 256 256 255 255 257 259 258 257 255 249 243 236 233 233 230 226 224 218 214 215 218 218 215 214 213 212 211 211 210 206 204 199 196 192
23 21 18 18 18 15 10 6 7 7 6 5 4 4 4 4 2 0 358 357 356 356 356 352 348 345 345 343 341 340 338 338 337 336 336 334 332 329 326 323 318 313 301 284 273 264 261 262 259 257 255 254 255 255 255 254 256 257 254 254 250 244 237 230 230 230 224 219 215 213 215 219 218 216 217 214 214 214 213 212 211 205 198 197 191
24 23 17 16 17 14 10 10 10 10 9 7 6 5 4 3 1 358 356 355 354 353 352 350 348 346 343 340 338 338 337 337 337 334 332 331 331 329 327 325 321 317 310 299 286 273 264 261 259 258 256 253 253 254 256 254 253 255 253 252 250 246 241 232 227 229 224 215 213 213 213 217 218 217 218 217 215 217 216 211 212 208 199 197 191
24 22 18 18 16 13 14 15 13 12 12 9 8 7 4 2 359 357 355 353 352 349 348 346 346 344 341 337 335 335 335 335 334 332 330 328 326 326 324 323 322 320 316 309 298 286 274 265 258 257 258 254 252 254 255 254 252 251 251 249 246 244 242 236 230 228 223 216 214 213 212 215 216 217 219 221 219 220 221 215 211 209 201 196 192
19 17 17 19 14 14 17 18 16 14 13 11 10 8 5 2 359 356 354 352 350 347 344 342 341 340 337 335 333 331 331 330 330 329 329 327 323 322 321 321 321 320 319 316 308 297 285 275 265 257 256 254 252 252 252 251 250 249 248 245 241 240 240 237 232 226 220 216 213 212 212 214 214 216 219 222 222 221 223 218 211 209 204 197 192
16 15 17 17 14 16 21 20 16 14 13 11 10 9 6 3 360 356 354 351 348 345 343 341 338 336 334 332 331 329 327 325 325 325 325 324 323 321 320 319 318 319 318 317 315 309 297 284 275 264 256 253 251 250 249 247 247 246 245 242 238 237 235 233 229 222 215 212 210 210 212 212 212 214 218 222 224 224 224 222 214 210 206 198 192
20 20 19 17 18 21 22 18 14 12 10 8 8 7 4 1 359 355 353 351 348 345 342 340 337 335 332 330 329 326 323 322 321 320 320 320 320 320 319 318 316 318 319 317 317 315 308 298 288 272 257 250 249 247 246 245 243 243 241 239 238 235 231 229 227 223 216 212 210 210 212 213 213 215 219 222 225 226 224 223 214 208 206 199 192
26 22 19 18 21 21 18 14 11 9 7 6 5 4 2 359 355 352 350 349 347 345 342 339 336 334 331 330 328 324 321 319 318 316 316 316 316 316 316 316 316 316 318 318 318 317 314 310 301 283 264 254 249 244 242 243 242 241 240 237 236 233 228 225 225 224 219 214 212 212 213 215 216 217 221 223 225 227 225 222 214 208 205 199 194
28 21 19 19 19 17 15 12 9 8 6 5 4 2 360 356 353 350 347 344 343 342 340 338 335 332 330 328 326 324 320 317 316 314 313 313 312 311 311 313 313 313 314 317 319 318 315 312 308 300 284 264 249 241 238 239 241 240 239 236 232 229 226 221 221 223 221 218 216 215 216 217 217 218 222 222 223 226 225 222 217 210 204 197 195
28 22 20 19 17 13 12 10 8 8 6 5 3 1 358 355 352 349 346 343 341 340 338 337 334 331 328 327 324 322 320 317 314 313 311 310 309 307 306 307 308 308 310 313 317 319 318 314 310 310 302 277 251 240 236 234 237 238 236 233 229 226 224 221 219 221 221 219 217 216 217 218 217 218 223 223 223 226 223 221 216 209 203 197 193
28 24 21 19 16 12 11 9 8 7 6 5 2 359 357 354 352 349 346 343 341 339 337 336 333 330 327 325 323 321 319 317 314 312 310 308 306 304 303 302 304 305 305 309 313 317 318 316 313 311 308 293 262 242 232 230 232 234 232 229 227 225 222 220 218 217 217 216 214 215 215 215 216 219 223 225 226 226 222 220 214 207 204 198 191
28 25 23 19 16 14 13 9 8 8 8 5 1 358 355 353 351 349 346 342 339 336 335 334 332 329 326 323 322 320 319 317 314 312 309 307 304 301 300 299 300 301 301 304 308 313 316 315 313 310 308 305 278 245 230 228 227 227 228 227 226 224 221 218 216 216 216 215 214 215 214 215 216 219 223 225 225 223 221 219 213 208 205 199 191
29 25 22 21 20 18 14 9 10 10 7 4 359 357 355 353 351 347 344 340 337 335 333 332 330 327 325 322 321 319 318 316 315 313 309 305 302 299 297 298 297 297 297 299 303 308 313 313 311 309 306 308 297 265 237 228 226 225 224 224 224 223 220 218 216 216 217 216 216 216 215 216 216 218 221 222 221 220 220 217 210 209 207 199 191
29 26 24 24 22 17 12 11 12 10 6 3 360 358 356 353 350 347 344 340 337 334 331 329 327 325 323 321 319 318 317 315 314 312 308 304 301 298 296 296 296 294 292 294 298 302 308 310 308 308 305 303 306 294 259 233 225 223 221 220 220 219 218 218 216 216 215 215 216 216 215 215 215 216 218 217 215 212 214 216 214 216 213 200 190
29 29 29 26 21 15 12 12 12 9 6 4 1 359 355 352 349 346 343 340 336 332 330 328 325 324 321 320 319 317 316 315 313 311 308 304 300 297 295 295 293 291 289 290 293 298 303 307 305 305 305 302 300 301 287 253 228 219 216 215 216 215 215 217 216 215 214 214 215 215 214 213 212 211 212 211 209 206 206 212 215 223 225 208 193
32 32 30 23 18 15 12 12 11 8 6 4 1 357 354 351 349 346 344 339 334 330 329 326 325 324 321 319 319 318 317 317 316 314 310 305 301 297 295 294 292 288 286 286 288 294 299 302 303 301 302 303 298 296 299 284 246 220 213 212 211 212 212 213 214 213 212 212 213 214 212 209 207 206 205 206 206 204 203 205 208 220 222 206 193
35 31 27 21 18 15 11 11 10 7 5 4 1 357 353 351 349 346 342 337 332 328 327 326 324 323 321 319 318 318 317 316 316 315 311 307 303 299 296 293 291 286 282 282 283 288 295 298 300 300 299 302 302 296 297 298 278 239 222 216 211 210 210 209 210 211 211 208 206 205 202 201 201 202 203 204 202 201 201 202 203 206 202 192 185
35 30 25 21 18 14 11 11 9 6 5 4 359 356 354 350 346 342 336 333 331 329 327 326 324 322 321 320 318 317 316 315 315 314 311 309 304 299 296 292 289 285 280 279 280 282 288 294 297 297 295 296 300 298 296 299 293 260 229 224 220 213 208 206 206 208 209 207 200 193 188 189 193 196 199 201 199 196 195 196 195 189 180 176 173
31 28 22 19 14 11 10 9 6 4 4 2 358 355 353 347 341 337 333 331 330 328 325 324 323 322 321 320 318 316 315 315 314 313 310 309 306 301 295 291 287 283 279 277 277 278 281 289 294 293 291 289 290 294 293 293 293 274 243 221 224 221 214 208 204 203 204 204 202 195 185 183 186 190 193 194 195 193 190 191 190 184 175 170 169
28 23 17 15 11 8 8 5 3 1 359 358 357 352 348 344 339 335 333 330 328 327 323 323 323 322 321 320 319 318 317 316 314 312 310 307 305 302 296 291 286 280 278 276 275 275 277 283 289 289 289 286 283 286 287 281 282 278 257 222 212 217 218 213 207 204 199 196 198 197 193 190 189 190 188 188 191 191 190 190 188 184 178 173 170
22 15 12 11 7 4 2 359 358 356 354 354 353 349 344 342 340 336 335 332 329 328 326 325 324 322 321 320 319 317 315 313 311 309 307 304 301 299 295 289 285 281 277 275 273 273 274 279 284 286 285 283 282 282 282 277 275 278 262 223 203 200 219 211 201 205 198 194 196 195 194 192 193 195 193 191 191 190 189 188 186 183 181 179 174
11 7 8 5 1 358 355 353 352 350 350 351 348 346 344 343 341 338 337 335 331 331 329 326 325 322 320 318 316 314 312 310 309 306 303 301 298 296 293 287 284 282 278 274 272 271 273 277 280 283 280 276 276 279 281 277 272 273 272 267 234 197 214 202 190 201 197 195 197 194 192 190 190 192 192 193 194 192 189 186 184 182 182 183 179
2 1 1 356 351 349 348 346 346 345 346 346 345 344 345 344 342 339 336 333 329 326 324 322 320 319 318 317 315 314 313 311 309 307 303 301 300 299 294 287 284 283 279 275 271 270 273 276 276 278 279 273 269 271 275 276 274 272 271 276 276 258 226 180 179 197 193 197 197 192 191 188 187 188 186 187 190 191 191 187 181 180 182 184 181
354 354 349 345 342 340 342 341 339 341 341 343 344 343 343 342 339 334 329 326 321 317 317 317 315 315 315 314 314 313 313 311 310 309 307 305 304 305 300 291 288 285 281 276 272 270 271 273 272 274 276 270 263 260 266 274 278 274 269 274 283 279 258 203 184 180 171 198 194 188 190 188 185 185 183 183 187 187 189 190 182 179 181 180 178
346 345 341 338 337 336 337 336 334 336 338 340 341 341 341 338 334 328 322 318 314 312 313 315 314 314 313 312 312 311 311 310 308 306 306 304 302 305 305 302 299 295 288 279 273 272 269 268 270 273 271 262 255 258 265 270 269 271 274 274 283 286 273 231 200 189 175 182 187 182 188 189 185 184 181 181 185 185 184 189 186 179 179 176 172
337 337 336 333 334 335 333 331 330 333 336 337 338 339 338 335 330 324 318 315 313 310 311 312 313 314 313 312 311 310 310 308 304 302 302 301 297 298 302 305 307 307 302 292 280 272 265 265 268 267 261 254 254 259 262 263 258 262 273 275 277 286 285 250 210 199 190 175 177 176 179 186 185 184 182 181 184 185 183 187 187 181 178 176 172
330 332 331 329 332 332 329 327 328 331 333 335 336 337 337 333 327 321 317 314 313 311 311 310 311 313 312 311 310 309 308 306 304 302 300 298 296 297 298 299 302 306 308 305 293 277 265 264 265 257 252 252 256 257 257 258 259 260 263 267 269 277 289 269 219 200 195 183 179 176 172 179 185 184 182 180 180 183 182 182 182 181 182 179 173
325 325 324 326 329 327 325 324 328 331 332 333 334 334 334 329 323 319 314 312 311 310 310 309 310 312 312 311 309 307 306 305 305 303 299 296 295 297 299 299 300 302 305 306 304 293 277 266 257 248 249 252 253 253 253 253 255 260 260 258 260 259 266 276 257 213 190 190 181 176 178 180 180 181 181 180 179 179 180 178 178 179 182 182 176